Hourly Weather Rudniki

Today, 20 April, Tuesday

Time Temperature Precipitation Wind Pressure Humidity
00:00 +8°C° 0 mm 2 mps 757 mmHg 77%
01:00 +7°C° 0 mm 2 mps 757 mmHg 78%
02:00 +7°C° 0 mm 2 mps 757 mmHg 79%
03:00 +6°C° 0 mm 2 mps 756 mmHg 79%
04:00 +6°C° 0 mm 2 mps 756 mmHg 79%
05:00 +7°C° 0 mm 2 mps 756 mmHg 75%
06:00 +9°C° 0 mm 1 mps 756 mmHg 72%
07:00 +10°C° 0 mm 1 mps 756 mmHg 68%
08:00 +12°C° 0 mm 1 mps 756 mmHg 63%
09:00 +14°C° 0 mm 1 mps 756 mmHg 57%
10:00 +15°C° 0 mm 1 mps 756 mmHg 52%
11:00 +16°C° 0 mm 1 mps 756 mmHg 48%
12:00 +17°C° 0 mm 2 mps 755 mmHg 45%
13:00 +17°C° 0 mm 2 mps 755 mmHg 41%
14:00 +17°C° 0 mm 3 mps 755 mmHg 41%
15:00 +17°C° 0 mm 3 mps 754 mmHg 41%
16:00 +17°C° 0 mm 3 mps 754 mmHg 40%
17:00 +14°C° 0 mm 3 mps 754 mmHg 51%
18:00 +12°C° 0 mm 3 mps 754 mmHg 61%
19:00 +10°C° 0 mm 3 mps 754 mmHg 72%
20:00 +9°C° 0 mm 3 mps 754 mmHg 76%
21:00 +8°C° 0 mm 2 mps 754 mmHg 81%
22:00 +7°C° 0 mm 2 mps 754 mmHg 85%
23:00 +6°C° 0 mm 2 mps 754 mmHg 86%

Tomorrow, 21 April, Wednesday

Time Temperature Precipitation Wind Pressure Humidity
00:00 +6°C° 0 mm 2 mps 754 mmHg 87%
01:00 +5°C° 0 mm 2 mps 754 mmHg 88%
02:00 +5°C° 0 mm 2 mps 754 mmHg 88%
03:00 +4°C° 0 mm 2 mps 754 mmHg 89%
04:00 +4°C° 0 mm 2 mps 754 mmHg 89%
05:00 +5°C° 0 mm 2 mps 754 mmHg 84%
06:00 +6°C° 0 mm 2 mps 754 mmHg 79%
07:00 +7°C° 0 mm 2 mps 754 mmHg 74%
08:00 +9°C° 0 mm 2 mps 754 mmHg 67%
09:00 +11°C° 0 mm 3 mps 754 mmHg 60%
10:00 +13°C° 0 mm 3 mps 754 mmHg 53%
11:00 +14°C° 0 mm 3 mps 753 mmHg 50%
12:00 +14°C° 0 mm 4 mps 753 mmHg 47%
13:00 +15°C° 0 mm 4 mps 753 mmHg 44%
14:00 +14°C° 0.1 mm 5 mps 752 mmHg 48%
15:00 +14°C° 0.1 mm 5 mps 752 mmHg 52%
16:00 +13°C° 0.1 mm 5 mps 752 mmHg 56%
17:00 +10°C° 0.2 mm 5 mps 752 mmHg 65%
18:00 +8°C° 0.2 mm 5 mps 753 mmHg 74%
19:00 +5°C° 0.2 mm 4 mps 753 mmHg 84%
20:00 +5°C° 0 mm 4 mps 753 mmHg 83%
21:00 +4°C° 0 mm 4 mps 753 mmHg 83%
22:00 +4°C° 0 mm 4 mps 753 mmHg 83%
23:00 +2°C° 0 mm 5 mps 753 mmHg 83%

Day after tomorrow, 22 April, Thursday

Time Temperature Precipitation Wind Pressure Humidity
00:00 +1°C° 0 mm 5 mps 753 mmHg 83%
01:00 0°C° 0 mm 5 mps 753 mmHg 83%
02:00 -1°C° 0 mm 6 mps 753 mmHg 82%
03:00 -1°C° 0 mm 6 mps 753 mmHg 81%
04:00 -1°C° 0 mm 6 mps 753 mmHg 79%
05:00 -1°C° 0 mm 6 mps 753 mmHg 78%
06:00 +1°C° 0 mm 6 mps 753 mmHg 76%
07:00 +2°C° 0 mm 7 mps 753 mmHg 74%
08:00 +2°C° 0.2 mm 7 mps 753 mmHg 79%
09:00 +2°C° 0.2 mm 7 mps 753 mmHg 84%
10:00 +2°C° 0.2 mm 7 mps 753 mmHg 89%
11:00 +3°C° 0.5 mm 6 mps 754 mmHg 80%
12:00 +4°C° 0.5 mm 6 mps 754 mmHg 72%
13:00 +5°C° 0.5 mm 6 mps 754 mmHg 64%
14:00 +5°C° 0.4 mm 6 mps 754 mmHg 64%
15:00 +6°C° 0.4 mm 5 mps 754 mmHg 64%
16:00 +6°C° 0.4 mm 5 mps 755 mmHg 64%
17:00 +5°C° 0.1 mm 5 mps 755 mmHg 66%
18:00 +4°C° 0.1 mm 4 mps 755 mmHg 69%
19:00 +3°C° 0.1 mm 3 mps 755 mmHg 71%
20:00 +3°C° 0 mm 4 mps 755 mmHg 72%
21:00 +3°C° 0 mm 4 mps 755 mmHg 73%
22:00 +1°C° 0 mm 5 mps 755 mmHg 74%
23:00 +1°C° 0 mm 5 mps 756 mmHg 74%

23 April, Friday

Time Temperature Precipitation Wind Pressure Humidity
00:00 +1°C° 0 mm 5 mps 756 mmHg 74%
01:00 +1°C° 0 mm 6 mps 756 mmHg 75%
02:00 +1°C° 0 mm 5 mps 756 mmHg 77%
03:00 0°C° 0 mm 5 mps 757 mmHg 79%
04:00 0°C° 0 mm 5 mps 757 mmHg 81%
05:00 +1°C° 0 mm 5 mps 758 mmHg 80%
06:00 +1°C° 0 mm 5 mps 758 mmHg 78%
07:00 +2°C° 0 mm 5 mps 759 mmHg 77%
08:00 +4°C° 0.1 mm 6 mps 759 mmHg 67%
09:00 +5°C° 0.1 mm 6 mps 759 mmHg 57%
10:00 +8°C° 0.1 mm 7 mps 760 mmHg 48%
11:00 +8°C° 0 mm 6 mps 760 mmHg 42%
12:00 +9°C° 0 mm 6 mps 760 mmHg 36%
13:00 +9°C° 0 mm 5 mps 760 mmHg 30%
14:00 +9°C° 0 mm 5 mps 761 mmHg 31%
15:00 +10°C° 0 mm 4 mps 761 mmHg 32%
16:00 +10°C° 0 mm 4 mps 761 mmHg 33%
17:00 +9°C° 0 mm 3 mps 760 mmHg 41%
18:00 +8°C° 0 mm 2 mps 760 mmHg 50%
19:00 +7°C° 0 mm 2 mps 760 mmHg 58%
20:00 +6°C° 0 mm 2 mps 760 mmHg 64%
21:00 +6°C° 0 mm 2 mps 760 mmHg 70%
22:00 +5°C° 0 mm 2 mps 760 mmHg 76%
23:00 +4°C° 0 mm 3 mps 760 mmHg 79%

24 April, Saturday

Time Temperature Precipitation Wind Pressure Humidity
00:00 +3°C° 0 mm 3 mps 760 mmHg 82%
01:00 +3°C° 0 mm 3 mps 760 mmHg 86%
02:00 +3°C° 0 mm 3 mps 760 mmHg 89%
03:00 +2°C° 0 mm 3 mps 760 mmHg 92%
04:00 +1°C° 0 mm 3 mps 760 mmHg 95%
05:00 +1°C° 0 mm 4 mps 760 mmHg 93%
06:00 +1°C° 0 mm 4 mps 760 mmHg 90%
07:00 +2°C° 0 mm 5 mps 760 mmHg 88%
08:00 +3°C° 0 mm 5 mps 760 mmHg 83%
09:00 +3°C° 0 mm 5 mps 760 mmHg 78%
10:00 +5°C° 0 mm 5 mps 760 mmHg 73%
11:00 +6°C° 0 mm 5 mps 760 mmHg 72%
12:00 +6°C° 0 mm 5 mps 760 mmHg 72%
13:00 +6°C° 0 mm 5 mps 760 mmHg 71%
14:00 +7°C° 0.1 mm 5 mps 760 mmHg 67%
15:00 +7°C° 0.1 mm 5 mps 761 mmHg 64%
16:00 +7°C° 0.1 mm 5 mps 761 mmHg 60%
17:00 +6°C° 0 mm 4 mps 761 mmHg 59%
18:00 +4°C° 0 mm 3 mps 761 mmHg 59%
19:00 +3°C° 0 mm 3 mps 762 mmHg 59%
20:00 +2°C° 0 mm 3 mps 762 mmHg 61%
21:00 +2°C° 0 mm 2 mps 762 mmHg 63%
22:00 +1°C° 0 mm 2 mps 762 mmHg 65%
23:00 +1°C° 0 mm 2 mps 763 mmHg 68%

25 April, Sunday

Time Temperature Precipitation Wind Pressure Humidity
00:00 -1°C° 0 mm 2 mps 763 mmHg 71%
01:00 -1°C° 0 mm 3 mps 763 mmHg 74%
02:00 -1°C° 0 mm 2 mps 763 mmHg 78%
03:00 -1°C° 0 mm 2 mps 763 mmHg 82%
04:00 -1°C° 0 mm 2 mps 763 mmHg 86%
05:00 0°C° 0 mm 3 mps 764 mmHg 79%
06:00 +2°C° 0 mm 3 mps 764 mmHg 73%
07:00 +4°C° 0 mm 3 mps 764 mmHg 66%
08:00 +5°C° 0 mm 4 mps 764 mmHg 57%
09:00 +7°C° 0 mm 4 mps 764 mmHg 47%
10:00 +8°C° 0 mm 5 mps 765 mmHg 37%
11:00 +8°C° 0 mm 5 mps 764 mmHg 36%
12:00 +9°C° 0 mm 5 mps 764 mmHg 35%
13:00 +9°C° 0 mm 5 mps 764 mmHg 33%
14:00 +9°C° 0 mm 5 mps 764 mmHg 34%
15:00 +9°C° 0 mm 5 mps 764 mmHg 35%
16:00 +8°C° 0 mm 5 mps 764 mmHg 36%
17:00 +7°C° 0 mm 4 mps 764 mmHg 43%
18:00 +5°C° 0 mm 3 mps 764 mmHg 51%
19:00 +5°C° 0 mm 2 mps 764 mmHg 58%
20:00 +5°C° 0 mm 1 mps 764 mmHg 59%
21:00 +4°C° 0 mm 1 mps 764 mmHg 60%
22:00 +2°C° 0 mm 0 mps 764 mmHg 61%
23:00 +3°C° 0 mm 1 mps 764 mmHg 61%
Show more